Location: Avon Lake
(41.5219°N, 93.5010°W)
Time: 18:04:11
(UTC+00:00)

BlueWalker 3 - Pass Details

Date: 02 December 2022
Orbit: 499 x 517 km, 53.2° (Epoch: 28 January)

Event Time Altitude Azimuth Distance (km) Brightness Sun altitude
Rises 00:08:57 0° 297° (WNW) 2,630 6.4 -15.4°
Reaches altitude 10° 00:11:59 10° 321° (NW) 1,738 5.0 -15.9°
Maximum altitude 00:14:16 15° 357° (N) 1,456 4.1 -16.3°
Enters shadow 00:15:14 14° 14° (NNE) 1,507 4.1 -16.5°
